Regional Weather Roundup
Issued by NWS Northern Indiana

Home | Current Version | Previous Version | Text Only | Print | Product List | Glossary Off
Versions: 1 2 3 4 5 6 7 8 9 10 11 12 13 14 15 16 17 18 19 20 21 22 23 24 25 26 27 28 29 30 31 32 33 34 35 36 37 38 39 40 41 42 43 44 45 46 47 48 49 50

000
ASUS43 KIWX 251800
RWRIWX

KIWX WEATHER ROUNDUP
NATIONAL WEATHER SERVICE NORTHERN INDIANA
200 PM EDT WED MAY 25 2016

NOTE: "FAIR" INDICATES FEW OR NO CLOUDS BELOW 12,000 FEET WITH NO
SIGNIFICANT WEATHER AND/OR OBSTRUCTIONS TO VISIBILITY.

* THESE STATIONS ARE NOT UNDER NWS QUALITY CONTROL. THEY ALSO MAY NOT
  REPORT WEATHER SUCH AS PRECIPITATION OR FOG.

INZ001>027-251900-
NORTHERN INDIANA

CITY           SKY/WX    TMP DP  RH WIND       PRES   REMARKS
GARY*          PTSUNNY   84  70  61 S8        29.99F
SOUTH BEND     MOSUNNY   83  61  47 S13G18    30.02F
6HR MIN TEMP:  67; 6HR MAX TEMP:  83;

ELKHART*       MOSUNNY   82  66  57 S12       30.02F
GOSHEN         MOSUNNY   84  59  42 S12G22    30.03S
6HR MIN TEMP:  68; 6HR MAX TEMP:  84;

ANGOLA*        MOSUNNY   81  63  54 S10       30.05S
FORT WAYNE     MOSUNNY   83  59  44 S16       30.05F
6HR MIN TEMP:  66; 6HR MAX TEMP:  83; 6HR PCP: TRACE;


$$
INZ028>050-251900-
CENTRAL INDIANA

CITY           SKY/WX    TMP DP  RH WIND       PRES   REMARKS
LAFAYETTE      SUNNY     82  60  47 SW6G18    30.01F
6HR MIN TEMP:  66; 6HR MAX TEMP:  82;

KOKOMO*        SUNNY     82  63  51 SW17G24   30.03F
6HR MIN TEMP:  64; 6HR MAX TEMP:  82;

MUNCIE*        MOSUNNY   84  58  40 SW15G21   30.06F
6HR MIN TEMP:  69; 6HR MAX TEMP:  84;

INDIANAPOLIS   PTSUNNY   82  62  50 S12       30.04F
6HR MIN TEMP:  67; 6HR MAX TEMP:  82;


$$
MIZ043>046-050>051-056>058-064>065-071>073-077>080-251900-
SOUTHWEST LOWER MICHIGAN

CITY           SKY/WX    TMP DP  RH WIND       PRES   REMARKS
BATTLE CREEK   PTSUNNY   82  60  47 S12       30.03F
6HR MIN TEMP:  67; 6HR MAX TEMP:  82;

BENTON HARBOR  MOSUNNY   79  62  56 W8        30.01S
6HR MIN TEMP:  68; 6HR MAX TEMP:  82;

COLDWATER*     PTSUNNY   80  58  46 S7G16     30.04S
6HR MIN TEMP:  66; 6HR MAX TEMP:  81;

HILLSDALE*     MOSUNNY   80  51  36 S10       30.06F
HOLLAND        MOSUNNY   82  64  54 W13       30.01S
6HR MIN TEMP:  70; 6HR MAX TEMP:  84;

GRAND RAPIDS   MOSUNNY   87  61  41 S8        30.01F
6HR MIN TEMP:  69; 6HR MAX TEMP:  87;

KALAMAZOO      CLOUDY    82  58  43 S9G18     30.02F
6HR MIN TEMP:  67; 6HR MAX TEMP:  84;

STURGIS*       PTSUNNY   80  59  47 S14G22    30.03S
6HR MIN TEMP:  66; 6HR MAX TEMP:  82;

THREE RIVERS*  FAIR      83  57  41 S15       30.03S

$$
OHZ001>008-015>018-024>025-251900-
NORTHWEST OHIO

CITY           SKY/WX    TMP DP  RH WIND       PRES   REMARKS
DEFIANCE       MOSUNNY   82  58  43 S13G23    30.07S
6HR MIN TEMP:  67; 6HR MAX TEMP:  82;

FINDLAY        CLOUDY    77  57  50 S12       30.10F
6HR MIN TEMP:  67; 6HR MAX TEMP:  82;

TOLEDO EXPRESS PTSUNNY   81  58  45 S13       30.07S
6HR MIN TEMP:  63; 6HR MAX TEMP:  84;

TOLEDO METCALF PTSUNNY   80  58  46 SW18      30.08S
6HR MIN TEMP:  65; 6HR MAX TEMP:  85;

LIMA           CLOUDY    79  58  48 S14       30.10F
6HR MIN TEMP:  64; 6HR MAX TEMP:  79; 6HR PCP: TRACE;


$$
AND FOR LAKE MICHIGAN COASTAL AND OPEN LAKE BUOY OBSERVATIONS

STATION/POSITION TEMP    WIND        PRES    VSBY  WAVE
                 AIR SEA DIR/SP/G                  HT/PER
                 (F)     (DEG/KT/KT) (MB)    (MI)  (FT/S)
CALUMET HARBOR    79     160/  6/ 10 1015.1R
MICHIGAN CITY     79     150/  8/ 10   N/A
BURNS HARBOR      79     200/  8/ 13 1016.3S
SAINT JOSEPH      82     200/  1/  2 1017.3R
SOUTH LAKE BUOY   54 50  160/  6/  8 1016.0          1
4 MI NW BRIDGMAN  71 63  290/  4/  4   N/A           0
MICHIGAN CITY     72 60  210/  2/  4   N/A           1

$$
&&




USA.gov is the U.S. government's official web portal to all federal, state and local government web resources and services.